Regional Weather Roundup
Issued by NWS Green Bay, WI

Home | Current Version | Previous Version | Graphics & Text | Print | Product List | Glossary Off
Versions: 1 2 3 4 5 6 7 8 9 10 11 12 13 14 15 16 17 18 19 20 21 22 23 24 25 26 27 28 29 30 31 32 33 34 35 36 37 38 39 40 41 42 43 44 45 46 47 48 49 50

000
ASUS43 KGRB 282010
RWRGRB

NORTH-CENTRAL AND NORTHEAST WISCONSIN REGIONAL WEATHER ROUNDUP
NATIONAL WEATHER SERVICE GREEN BAY WI
200 PM CST SAT FEB 28 2015

WIZ005-009-010>012-018-019-282100-
NORTH CENTRAL WISCONSIN

CITY           SKY/WX    TMP DP  RH WIND       PRES   REMARKS
IRONWOOD       MOSUNNY   21   0  39 SW12      30.34F WCI   9
MANITOWISH WTR SUNNY     19  -3  38 SW14G21   30.37F WCI   5
ARBOR VITAE    SUNNY     22   1  40 SW12      30.37F
EAGLE RIVER    SUNNY     20  -6  31 S9        30.37F WCI   9
LAND O LAKES   SUNNY     23  -5  30 SW9       30.37F
RHINELANDER    SUNNY     18  -2  41 SW13G18   30.41F WCI   5
PHILLIPS       SUNNY     17  -2  43 SW15      30.39F WCI   3
ANTIGO         SUNNY     17   0  49 SW9       30.44F WCI   5
TOMAHAWK       SUNNY     19  -2  39 CALM      30.43S
MERRILL        SUNNY     17  -1  44 SW12      30.46F WCI   4
$$

WIZ013-073-282100-
NORTHEAST WISCONSIN

CITY           SKY/WX    TMP DP  RH WIND       PRES   REMARKS
IRON MOUNTAIN  SUNNY     23   1  38 S13       30.42F
MARINETTE      SUNNY     19   3  49 SW10G17   30.53F WCI   8
OCONTO         SUNNY     19   3  51 S12G17    30.55F WCI   6
$$

WIZ017-030-035>037-045-282100-
CENTRAL WISCONSIN

CITY           SKY/WX    TMP DP  RH WIND       PRES   REMARKS
MEDFORD        SUNNY     13  -1  54 SW10      30.44F WCI   0
WAUSAU         SUNNY     16  -1  47 S10       30.46F WCI   4
MOSINEE        SUNNY     18  -2  41 SW14      30.49F WCI   4
MARSHFIELD     SUNNY     18  -3  39 S14       30.47F WCI   4
WISC RAPIDS    SUNNY     17  -6  35 SW14      30.52F WCI   3
STEVENS POINT  SUNNY     17  -4  40 S12       30.50F WCI   4
WAUPACA        SUNNY     24  -4  29 S9        30.54F
SHAWANO          N/A     22  -1  36 SW10      30.54F
CLINTONVILLE   SUNNY     21   1  42 SW6       30.54F
$$

WIZ038-039-048-051-282100-
FOX VALLEY

CITY           SKY/WX    TMP DP  RH WIND       PRES   REMARKS
NWS GREEN BAY  SUNNY     19   5  54 S13       30.56F WCI   6
APPLETON       MOSUNNY   18   0  45 S13       30.55F WCI   4
OSHKOSH        SUNNY     17  -2  43 SW10      30.56F WCI   5
FOND DU LAC    SUNNY     19  -1  41 S14       30.56F WCI   6
$$

WIZ022-050-052-282100-
EAST CENTRAL WISCONSIN

CITY           SKY/WX    TMP DP  RH WIND       PRES   REMARKS
STURGEON BAY   SUNNY     19   3  49 SW10      30.57F WCI   8
MANITOWOC      SUNNY     22   2  42 S13       30.58F WCI  10
SHEBOYGAN      SUNNY     19   0  43 SW9       30.58F WCI   8
$$

LMZ563-521-522-541>543-282100-
LAKESHORE

STATION/POSITION TIME  TEMP    WIND        PRES    VSBY  WAVE
                       AIR SEA DIR/SP/G                  HT/PER
                 (UTC) (F)     (DEG/KT/KT) (MB)    (MI)  (FT/S)
SHEBOYGAN LKSHOR 2000   17     170/ 15/ 17 1037.3F
KEWAUNEE LKSHORE 2000   19     190/ 11/ 14 1034.2F
TWO RIVERS CG    1900   17                 1036.1      6
NORTHPORT PIER   2000   21     220/  4/ 13 1034.2F
SISTER BAY LKSHO 1900   27     230/ 12/ 15   N/A
STURGEON BAY CG  1900   19     210/  7     1036.1      6
CHAMBERS ISLAND  2000   16     190/  7/ 16 1034.5F
MENOMINEE LKSHOR 2000   16     160/ 13     1034.6F
$$


USA.gov is the U.S. government's official web portal to all federal, state and local government web resources and services.